Wind_Speed
5 5 6 6 6 5 5 4 4 4 5 5 5 4 5 4 4 4 3 2 3 3 3 3 3 4 4 3 3 3 5 5 6 6 7 8 7 7 7 7 7 7 7
6 6 6 7 6 5 5 4 4 4 5 5 6 5 5 5 5 6 4 3 3 4 4 3 3 4 4 4 3 4 4 5 6 6 7 7 8 7 7 8 7 7 7
6 6 6 7 6 5 5 5 5 5 5 5 6 5 5 5 5 6 5 4 3 3 3 4 4 4 4 3 3 3 3 5 5 6 7 8 7 7 8 7 7 7 7
6 6 7 7 6 6 6 6 6 6 5 5 6 5 5 5 5 6 7 5 4 3 3 4 5 5 5 4 4 4 4 5 5 6 7 7 7 7 8 8 8 8 9
8 7 7 7 8 7 7 7 7 6 6 6 6 5 6 6 6 6 6 6 5 4 4 4 5 5 5 5 5 5 5 6 6 7 6 6 6 6 7 8 9 10 9
8 8 8 8 9 9 8 8 8 7 7 7 6 6 6 6 7 7 7 7 6 5 5 5 4 5 4 5 6 5 6 6 6 7 7 7 7 7 8 9 9 9 9
9 9 9 9 9 9 8 8 8 8 8 8 7 7 7 7 8 8 8 7 7 6 6 6 5 5 6 5 5 6 6 6 6 7 7 8 8 8 8 9 9 9 9
10 9 10 10 10 9 9 9 9 9 9 8 8 8 8 8 8 8 7 7 7 7 7 7 6 6 5 6 6 5 5 6 6 7 7 8 8 8 9 9 9 9 10
11 11 11 11 10 10 9 9 9 8 8 8 8 8 9 8 8 8 8 8 8 8 7 7 7 7 6 6 6 5 6 6 6 6 6 7 8 9 10 10 11 11 11
13 12 12 11 11 10 9 9 9 9 8 7 8 9 9 9 8 8 9 9 8 8 8 7 7 8 8 8 7 7 7 7 7 6 7 7 8 10 11 12 11 12 12
13 12 12 12 12 12 11 10 9 9 9 9 9 9 10 10 10 9 9 8 8 8 8 8 8 8 9 10 9 9 9 8 8 8 9 9 10 11 11 12 12 12 13
14 13 13 13 13 12 11 11 10 10 10 10 11 11 11 11 11 10 10 9 9 8 8 9 9 9 9 9 10 10 10 9 10 11 11 11 11 11 12 13 13 13 13
14 14 14 14 13 13 12 12 11 11 11 11 12 12 12 12 12 11 11 11 10 10 10 10 10 9 10 10 10 11 10 10 10 11 12 12 12 12 13 13 14 14 14
15 15 15 15 14 13 13 13 12 12 12 12 13 12 12 12 13 12 11 12 12 11 11 11 11 11 11 11 12 12 12 12 12 12 13 13 13 14 14 14 13 13 14
17 17 16 16 16 15 14 14 14 13 13 13 13 13 12 13 13 13 13 13 13 12 12 12 12 12 12 13 13 13 13 13 13 14 14 14 14 15 15 15 14 15 15
19 18 17 17 16 16 15 15 15 15 15 15 15 14 14 14 15 15 15 14 14 13 13 13 13 13 14 14 13 14 14 15 15 15 15 16 16 16 16 16 16 16 15
20 20 19 19 18 17 16 16 16 17 17 16 17 17 16 16 16 16 16 16 16 16 15 15 15 15 15 15 15 15 15 15 16 16 16 16 16 17 17 17 16 16 16
21 21 21 20 20 19 18 18 18 18 18 18 18 18 17 17 17 17 18 18 18 18 17 17 17 17 16 16 16 15 16 16 17 17 17 17 17 17 18 17 16 17 17
23 22 22 21 21 20 20 20 20 20 20 20 20 20 20 20 20 19 19 19 19 19 19 19 19 19 19 19 18 18 18 18 18 18 18 18 18 19 19 18 18 18 18
23 23 22 22 22 22 22 22 22 22 22 22 21 21 22 21 21 21 20 20 20 21 21 21 21 21 21 21 20 20 20 20 20 19 19 20 20 20 20 20 20 20 20
24 24 24 23 23 24 23 24 24 23 23 23 23 23 23 23 22 22 22 22 22 22 23 23 22 22 22 22 21 21 22 21 21 21 21 21 21 21 22 22 22 22 21
26 26 25 25 25 25 24 25 25 24 24 25 25 25 24 24 24 24 24 25 24 24 25 25 24 23 23 23 23 23 23 23 23 23 24 23 24 24 24 24 23 23 23
27 27 27 27 27 26 26 26 27 27 27 27 27 26 26 26 26 26 26 26 27 27 27 27 26 25 25 25 25 25 24 25 25 24 25 25 25 24 25 24 24 24 24
29 28 28 28 28 28 28 29 29 29 29 28 28 28 27 27 27 27 27 27 27 28 28 28 28 27 27 27 27 27 26 26 26 26 26 26 26 26 25 24 25 25 25
30 30 29 28 29 29 30 30 30 30 30 30 30 29 28 28 28 29 29 28 29 29 30 30 29 29 29 30 30 29 29 27 27 27 27 27 27 27 27 26 25 25 26
30 30 30 30 30 30 30 30 30 30 30 30 30 30 30 30 30 30 30 30 30 30 31 31 31 31 31 31 31 31 30 30 29 29 29 29 28 28 28 28 27 27 27
Wind_Direction
6 356 347 347 347 336 323 309 317 325 329 330 329 329 332 326 320 326 321 318 301 275 267 268 242 229 230 238 251 259 245 244 235 235 238 236 231 234 236 241 239 238 242
356 355 347 346 344 337 328 323 326 324 325 326 328 325 328 332 333 334 337 333 315 289 268 266 243 234 234 249 261 269 255 242 238 241 246 243 237 238 236 239 239 240 246
351 353 350 350 348 341 334 331 329 329 327 330 332 331 329 331 339 343 334 325 316 307 292 276 268 245 249 258 276 281 260 243 245 249 246 240 244 245 236 239 245 246 251
351 349 347 347 344 343 334 325 320 321 321 324 326 321 324 322 324 328 328 331 321 314 307 295 287 267 254 255 262 269 271 261 256 254 251 250 247 250 242 239 247 248 251
355 347 340 339 336 332 328 321 314 315 311 312 312 314 310 310 311 314 322 324 322 317 310 302 296 287 260 250 256 262 267 266 260 257 258 259 259 263 253 249 251 252 255
358 351 343 337 333 329 327 320 311 307 307 310 307 310 309 306 304 305 311 313 317 312 308 302 300 297 277 253 261 270 270 266 263 260 262 265 265 267 260 255 256 255 254
357 352 346 340 334 328 321 314 311 305 302 305 306 306 302 297 298 297 298 299 308 307 306 312 312 305 291 277 269 271 279 277 269 267 268 271 273 270 262 257 259 259 259
353 348 346 344 338 331 326 318 311 306 300 298 300 298 297 301 299 295 298 297 301 302 297 296 302 307 297 288 280 272 273 279 279 273 272 275 275 271 266 261 260 260 263
352 347 344 340 338 335 325 321 319 307 304 302 306 310 308 313 312 301 296 299 300 300 301 290 293 299 295 298 296 292 278 276 274 274 278 280 279 271 265 265 263 265 264
347 343 344 345 343 340 337 331 325 321 311 307 309 314 314 312 313 303 296 295 300 302 305 301 299 299 302 294 290 291 294 293 290 282 278 276 272 269 265 263 264 263 263
345 345 344 341 340 339 336 331 325 319 312 306 304 305 306 306 306 309 301 295 293 292 291 295 293 292 288 287 288 288 292 293 291 289 289 284 280 276 273 268 266 263 263
334 336 337 334 332 332 331 328 324 318 313 310 309 306 302 301 300 302 301 297 295 293 291 290 292 290 283 283 285 283 286 286 286 286 288 288 288 282 277 275 267 264 264
329 330 330 328 326 326 324 321 318 314 314 309 307 304 299 294 294 295 297 296 294 292 291 288 288 290 284 283 285 280 281 281 283 283 283 285 288 287 285 280 272 269 267
328 328 324 323 322 320 318 316 316 314 311 309 307 302 296 292 291 288 291 293 293 291 290 288 283 281 279 281 277 276 277 279 281 284 283 282 283 283 283 284 277 272 271
324 323 322 318 316 315 314 312 310 311 308 306 307 302 297 294 292 288 288 290 290 289 289 288 287 283 280 279 275 276 277 279 283 283 282 281 281 280 279 280 278 274 273
320 320 318 318 314 311 310 310 307 306 305 303 302 301 298 293 291 288 287 286 287 288 287 288 288 287 287 285 281 281 281 280 281 283 282 281 279 278 277 278 277 275 276
314 315 315 313 310 308 306 306 305 305 304 303 301 298 294 291 289 286 285 286 285 286 286 286 287 287 286 285 282 280 280 279 280 282 281 280 279 278 279 277 276 276 278
312 310 310 309 307 304 303 301 300 301 303 302 299 296 292 287 286 284 284 284 283 284 285 285 285 284 283 283 279 277 278 280 281 281 281 280 278 278 278 277 275 276 279
311 308 307 306 304 302 302 300 298 298 299 300 297 293 291 288 285 281 281 282 281 281 282 283 282 282 280 280 277 276 277 279 281 281 281 280 278 277 276 274 274 276 277
310 309 307 305 302 300 299 298 298 297 297 297 296 292 289 288 287 282 279 279 280 280 280 280 279 280 279 279 276 275 277 278 278 279 280 280 280 280 278 274 273 273 273
306 306 304 304 302 299 297 297 296 295 295 295 294 292 289 287 285 284 282 279 278 278 279 278 279 280 279 278 276 276 276 275 277 278 279 280 280 279 279 278 274 272 271
304 303 302 302 300 298 297 296 295 294 294 293 292 290 288 286 285 282 281 282 279 278 278 278 278 279 279 279 278 277 276 276 276 275 277 278 281 280 280 280 278 275 272
303 303 303 301 299 297 295 295 295 294 293 292 291 289 287 286 285 283 280 280 279 277 276 276 276 275 277 278 278 277 276 278 278 277 276 276 277 277 278 277 277 276 275
301 301 301 300 299 298 296 295 295 295 293 292 290 288 286 285 284 283 280 279 280 279 276 275 276 275 276 277 278 277 276 276 277 278 278 277 276 275 278 278 276 276 276
300 300 301 299 299 299 297 296 295 294 293 292 290 287 285 285 283 282 280 279 278 278 278 277 277 277 277 277 277 277 277 276 276 276 277 276 275 275 276 275 275 275 276
300 299 300 299 298 299 298 297 296 294 293 292 290 287 285 283 282 280 279 278 278 278 277 277 277 277 277 278 278 277 277 276 277 276 277 277 277 275 274 273 275 276 277
Height
5885 5884 5884 5883 5883 5882 5882 5882 5881 5881 5880 5880 5879 5878 5877 5876 5876 5875 5875 5875 5875 5875 5875 5875 5875 5875 5876 5876 5877 5876 5876 5877 5878 5880 5881 5882 5883 5884 5885 5886 5887 5888 5888
5884 5884 5883 5883 5882 5881 5881 5881 5881 5880 5880 5879 5878 5877 5877 5876 5875 5875 5874 5874 5874 5874 5874 5874 5874 5874 5875 5875 5875 5875 5874 5876 5877 5879 5879 5880 5881 5882 5883 5884 5885 5886 5887
5884 5884 5883 5883 5882 5881 5880 5880 5880 5879 5879 5878 5877 5877 5876 5875 5875 5874 5874 5874 5874 5874 5874 5873 5874 5874 5874 5874 5874 5874 5873 5874 5876 5877 5878 5879 5880 5881 5882 5882 5883 5884 5885
5884 5884 5883 5882 5881 5880 5880 5880 5879 5878 5878 5877 5877 5876 5876 5875 5874 5874 5874 5873 5873 5873 5873 5873 5873 5873 5873 5873 5873 5874 5874 5874 5875 5876 5876 5877 5878 5879 5880 5881 5881 5882 5883
5884 5883 5883 5882 5881 5880 5879 5879 5878 5877 5877 5876 5875 5875 5875 5874 5874 5873 5873 5872 5872 5872 5872 5872 5871 5871 5871 5872 5872 5873 5873 5873 5874 5874 5875 5876 5877 5877 5878 5879 5879 5880 5881
5884 5883 5882 5882 5881 5880 5879 5878 5877 5876 5875 5875 5874 5874 5873 5873 5872 5872 5872 5871 5871 5870 5870 5869 5869 5870 5870 5870 5871 5871 5872 5872 5872 5873 5874 5874 5875 5875 5876 5876 5877 5877 5878
5884 5883 5882 5881 5880 5879 5878 5877 5876 5875 5874 5874 5873 5873 5872 5872 5871 5870 5870 5870 5870 5869 5869 5868 5868 5868 5869 5869 5869 5870 5870 5870 5871 5871 5872 5872 5872 5873 5873 5874 5874 5875 5875
5884 5883 5882 5881 5879 5878 5876 5875 5874 5873 5872 5872 5872 5871 5870 5870 5870 5869 5869 5869 5868 5868 5868 5867 5867 5868 5867 5867 5867 5868 5868 5869 5869 5869 5869 5870 5870 5870 5871 5871 5872 5872 5873
5884 5882 5881 5880 5878 5877 5875 5874 5872 5872 5871 5870 5870 5870 5869 5869 5868 5868 5867 5867 5867 5867 5866 5866 5866 5866 5865 5866 5866 5866 5866 5867 5867 5867 5867 5867 5868 5868 5868 5869 5869 5869 5870
5884 5882 5881 5879 5877 5876 5874 5873 5872 5870 5869 5868 5868 5868 5868 5867 5867 5866 5866 5865 5865 5865 5865 5865 5864 5864 5864 5864 5864 5864 5865 5865 5865 5865 5865 5865 5865 5865 5865 5866 5866 5866 5866
5883 5882 5880 5878 5877 5875 5873 5871 5870 5869 5868 5867 5867 5866 5866 5865 5864 5864 5864 5863 5863 5863 5863 5863 5863 5862 5862 5862 5862 5862 5862 5863 5863 5863 5863 5863 5862 5862 5862 5862 5862 5863 5863
5882 5880 5879 5877 5875 5874 5872 5870 5869 5867 5866 5865 5865 5864 5863 5863 5862 5862 5861 5861 5861 5861 5861 5860 5860 5860 5860 5860 5860 5860 5860 5860 5860 5860 5860 5860 5859 5859 5859 5859 5859 5859 5859
5881 5879 5877 5876 5874 5872 5871 5869 5867 5866 5865 5864 5862 5861 5861 5860 5860 5859 5859 5859 5859 5858 5858 5858 5858 5857 5857 5857 5857 5857 5857 5857 5857 5857 5857 5857 5856 5856 5856 5855 5855 5855 5855
5878 5877 5875 5874 5872 5870 5868 5867 5865 5864 5862 5861 5860 5859 5858 5857 5857 5857 5857 5857 5857 5856 5856 5855 5855 5855 5854 5854 5854 5854 5854 5854 5854 5854 5854 5854 5853 5853 5852 5851 5851 5851 5850
5876 5874 5872 5871 5869 5867 5866 5864 5863 5861 5859 5858 5857 5856 5855 5854 5854 5854 5854 5854 5854 5854 5853 5852 5852 5851 5851 5851 5851 5851 5851 5851 5850 5850 5850 5850 5849 5848 5848 5847 5847 5847 5846
5874 5872 5870 5868 5866 5864 5862 5861 5860 5858 5856 5855 5854 5853 5852 5851 5850 5850 5850 5850 5850 5850 5850 5849 5849 5849 5848 5848 5848 5848 5847 5847 5847 5846 5846 5845 5844 5844 5844 5843 5843 5843 5842
5870 5868 5866 5864 5863 5861 5859 5858 5856 5855 5853 5852 5850 5849 5849 5848 5847 5847 5847 5846 5846 5846 5845 5846 5845 5845 5844 5844 5844 5843 5843 5843 5842 5842 5841 5841 5840 5839 5839 5839 5838 5838 5837
5866 5864 5862 5860 5859 5857 5856 5854 5853 5851 5849 5848 5846 5845 5845 5844 5843 5843 5842 5842 5841 5841 5841 5841 5840 5840 5839 5839 5839 5839 5838 5838 5837 5837 5836 5836 5835 5834 5834 5834 5833 5833 5833
5862 5860 5858 5856 5854 5853 5851 5849 5848 5847 5845 5844 5842 5841 5840 5839 5838 5838 5837 5837 5836 5836 5835 5835 5835 5834 5834 5834 5834 5833 5833 5833 5832 5831 5831 5830 5830 5829 5829 5829 5828 5828 5828
5857 5855 5853 5851 5849 5847 5846 5844 5843 5841 5840 5838 5837 5836 5835 5834 5832 5831 5831 5831 5830 5830 5829 5829 5829 5829 5828 5828 5828 5828 5827 5827 5826 5825 5825 5825 5824 5824 5823 5823 5823 5822 5822
5852 5850 5847 5845 5843 5841 5840 5838 5836 5835 5834 5833 5831 5830 5829 5827 5826 5825 5825 5824 5823 5823 5823 5822 5822 5822 5822 5821 5821 5821 5820 5820 5820 5819 5819 5818 5818 5817 5817 5816 5816 5815 5815
5846 5844 5842 5839 5837 5835 5833 5831 5830 5828 5827 5826 5824 5823 5822 5821 5820 5819 5818 5817 5816 5816 5815 5815 5815 5815 5815 5814 5814 5814 5813 5812 5813 5813 5812 5812 5811 5811 5810 5809 5808 5808 5808
5840 5837 5835 5832 5830 5828 5826 5824 5822 5820 5819 5817 5816 5815 5814 5813 5812 5812 5811 5810 5809 5808 5807 5807 5807 5807 5807 5806 5806 5806 5805 5805 5805 5805 5804 5804 5804 5803 5802 5802 5801 5801 5801
5832 5830 5828 5825 5823 5821 5818 5816 5814 5812 5810 5808 5807 5806 5805 5805 5804 5804 5803 5802 5801 5800 5799 5798 5798 5798 5798 5798 5798 5797 5797 5797 5797 5796 5796 5796 5795 5795 5795 5794 5794 5793 5793
5824 5822 5820 5818 5815 5813 5810 5808 5805 5803 5801 5800 5798 5797 5796 5796 5795 5794 5794 5793 5793 5792 5791 5790 5790 5789 5789 5789 5789 5788 5788 5788 5788 5788 5787 5787 5786 5786 5786 5786 5786 5785 5784
5817 5814 5812 5810 5808 5805 5802 5800 5797 5795 5793 5791 5789 5787 5786 5786 5785 5784 5784 5784 5784 5783 5782 5782 5781 5781 5780 5779 5779 5779 5779 5779 5779 5779 5779 5777 5777 5777 5777 5777 5777 5776 5776